Wind_Gust
11 12 12 8 8 10 10 7 8 9 12 12 12 11 13 15 16 16 15 13 13 12 11 9 11 11 10 8 8 7 6 6 6 8 10 9 8 8 8 8 9 8 9 8 7 8 10 8 8 8 8 8 7 7 7 7 5 5 5 7 6 6 11 10 14 10 6 9 18 18 16 16 14 13 14 12 11 11 7 10 10 11 10 9 9
19 16 14 8 10 12 9 7 8 8 11 13 12 13 15 15 16 15 14 12 12 12 11 10 10 11 10 10 8 8 8 6 6 8 10 8 7 8 10 9 8 9 8 9 8 9 9 9 7 9 9 10 8 7 7 8 7 5 3 4 5 7 7 9 9 11 12 8 10 12 17 16 16 15 16 15 12 13 10 9 10 12 14 11 10
17 18 13 12 11 10 10 10 7 9 13 13 14 15 16 15 15 16 14 11 10 9 11 9 12 10 10 10 7 8 8 7 6 8 8 8 6 4 8 6 8 9 7 9 9 8 10 8 6 5 7 8 7 7 6 8 7 7 6 5 5 6 8 11 11 8 16 12 12 16 15 14 15 18 16 16 17 17 14 10 14 13 13 13 14
15 13 13 13 13 10 11 10 9 10 13 12 16 17 16 15 14 15 13 11 10 9 10 9 9 9 11 8 9 8 9 7 5 9 9 8 7 6 4 6 9 10 8 8 6 7 7 10 7 8 6 4 5 6 5 4 3 5 7 5 6 5 8 12 11 13 11 16 11 19 16 15 11 16 17 15 17 16 16 13 13 15 14 15 15
15 19 10 11 8 13 12 11 13 10 12 14 16 17 17 15 14 15 13 10 7 11 9 9 8 9 10 10 10 10 9 5 4 7 7 6 7 6 6 8 10 5 6 6 10 8 11 9 8 7 6 5 3 4 5 5 4 3 6 4 4 3 7 12 11 14 16 16 14 11 13 14 12 15 17 17 12 13 11 14 16 17 16 16 17
10 8 9 8 6 10 10 9 15 16 17 17 16 17 17 16 15 13 12 9 9 10 10 8 9 9 9 11 11 11 8 7 6 3 6 5 4 5 3 4 6 7 6 8 10 11 12 10 8 10 9 8 4 2 5 7 7 5 4 4 4 3 9 10 12 12 15 16 17 13 7 13 9 12 17 18 17 15 12 11 12 15 16 15 16
11 9 13 14 9 13 16 10 15 20 18 18 15 17 16 14 14 13 9 11 11 10 9 10 7 9 9 10 13 15 15 15 12 11 11 7 4 7 5 4 4 3 6 8 11 12 10 9 8 9 10 8 6 2 3 7 7 6 3 6 5 5 13 11 11 12 13 13 7 10 14 10 12 12 15 17 19 20 21 13 13 16 16 17 18
5 12 16 13 15 15 14 11 14 10 14 16 17 16 17 14 13 9 11 11 10 9 9 9 8 16 18 16 16 15 14 15 13 12 10 10 6 6 6 7 5 5 8 8 8 10 11 10 8 7 7 7 7 6 4 9 6 5 2 7 9 10 12 13 13 12 13 10 12 11 13 14 6 10 12 16 12 10 14 16 19 16 17 18 19
14 15 14 13 15 12 11 11 9 9 9 12 12 16 15 14 11 13 13 10 8 8 7 14 20 19 16 16 16 15 17 15 12 10 10 10 9 8 5 5 3 4 7 8 13 12 9 9 10 9 8 9 8 6 5 5 7 10 5 3 5 8 7 8 12 14 11 11 9 7 11 10 11 12 13 16 19 22 21 14 17 16 16 13 15
13 14 17 13 14 16 16 14 12 7 13 11 13 12 12 10 10 13 13 10 8 9 14 18 18 17 17 16 15 16 14 12 11 11 8 6 6 10 8 7 4 1 3 9 11 10 9 6 7 10 11 10 10 9 11 13 11 9 6 7 8 10 9 9 8 9 9 9 10 11 9 13 14 12 13 13 19 15 10 12 15 16 9 10 8
12 11 15 14 18 17 18 18 15 12 11 10 13 15 14 12 10 10 13 16 17 17 19 18 16 16 17 17 17 15 13 11 12 7 7 8 7 9 8 8 4 5 2 9 11 9 7 6 7 10 11 9 10 9 11 12 13 11 9 10 8 9 8 10 7 6 5 5 3 3 8 11 12 12 12 13 9 16 19 19 19 12 14 14 18
20 20 14 13 17 17 19 19 17 14 11 9 14 16 15 15 17 15 18 20 20 17 18 16 16 15 17 18 17 14 13 13 13 11 9 11 8 9 8 7 7 4 4 12 8 8 10 9 5 6 7 9 9 9 9 9 11 12 11 10 11 9 7 7 6 5 4 4 5 4 3 3 6 5 7 5 8 6 9 6 13 16 16 16 15
23 22 20 17 16 15 16 17 16 12 6 13 14 16 18 18 18 18 18 16 18 18 14 17 16 14 18 19 16 14 13 14 14 14 13 12 11 8 8 8 7 6 7 8 12 8 4 9 9 14 16 17 14 10 4 6 6 9 10 9 7 8 8 6 4 5 9 5 2 3 4 3 3 3 4 4 6 11 15 17 14 12 14 14 16
25 25 24 23 19 16 16 18 18 16 15 15 16 16 18 17 17 17 18 20 21 17 16 17 15 16 17 17 16 14 15 15 15 15 14 14 13 7 6 7 7 7 6 9 8 9 8 9 13 14 13 15 15 15 10 6 5 5 5 4 3 5 6 5 4 4 3 5 5 6 7 5 5 5 7 5 4 7 8 12 10 11 13 18 15
27 24 25 24 21 19 17 18 19 18 18 15 17 17 17 17 20 18 20 20 19 16 15 16 15 15 15 15 17 16 15 16 17 16 16 16 14 8 9 3 7 8 12 15 15 14 14 16 16 15 14 14 14 13 11 9 6 8 8 8 10 8 13 15 13 11 11 11 8 9 9 8 10 9 7 3 4 6 7 7 9 11 11 8 6
26 25 25 24 21 20 19 19 19 18 16 16 17 16 16 16 18 19 21 20 16 15 14 15 15 15 14 16 17 16 16 18 17 17 17 15 12 12 10 9 5 12 19 18 17 16 16 17 16 16 14 14 13 16 13 10 13 12 12 10 12 12 14 10 14 15 14 11 7 6 9 11 7 8 8 8 9 9 8 3 3 5 7 9 14
25 24 23 22 22 21 20 19 21 20 18 19 18 15 16 16 14 14 23 17 17 17 15 14 12 14 16 16 16 15 16 16 16 17 17 17 12 14 14 17 18 19 20 18 18 19 18 17 15 15 14 15 13 17 17 12 14 14 11 10 10 8 12 16 15 14 16 16 16 13 10 10 11 10 10 8 5 3 6 10 11 7 9 10 12
22 22 21 21 22 22 20 19 21 20 19 18 15 13 14 14 16 13 18 18 16 14 15 17 16 15 17 16 15 16 15 15 17 18 19 18 13 15 13 15 16 17 17 17 17 19 20 24 18 16 14 12 14 18 18 15 15 12 12 10 12 10 10 12 14 14 11 12 12 12 12 13 14 13 10 11 10 3 3 12 11 6 11 8 14
21 20 19 19 20 21 21 20 20 21 21 17 15 14 14 13 14 16 16 17 16 14 15 18 18 17 16 16 16 19 15 13 16 19 20 18 16 14 14 14 16 14 13 14 13 15 16 16 17 14 12 10 13 14 15 13 11 9 7 8 8 7 7 9 12 16 17 18 17 15 15 13 13 12 13 14 13 7 8 12 10 10 12 11 15
15 15 17 19 20 21 20 20 19 19 18 15 14 13 11 14 16 18 17 16 17 15 14 15 17 16 14 15 15 13 15 14 17 20 20 20 16 17 15 17 14 11 10 11 13 11 11 12 12 12 12 11 10 9 9 8 7 3 4 5 5 8 5 8 7 6 8 8 11 11 11 10 10 10 11 13 15 11 10 9 4 4 8 15 17
11 11 14 18 20 20 19 20 20 18 15 13 13 13 15 16 16 17 17 14 14 13 13 14 17 17 15 13 12 11 12 15 16 18 19 20 18 15 16 15 10 10 10 12 10 11 10 10 8 10 11 10 8 7 5 4 3 2 1 2 4 4 5 7 9 7 7 8 9 10 12 11 10 10 10 10 11 12 9 6 8 10 11 13 16
12 12 13 15 13 16 17 16 14 16 15 14 14 13 12 14 15 15 13 12 13 12 12 13 16 15 12 11 14 12 11 13 15 15 17 17 17 17 15 13 10 8 12 12 12 11 9 7 7 8 10 9 7 6 5 4 4 4 5 6 9 9 8 6 8 9 8 8 9 10 11 10 12 12 12 12 13 15 14 14 12 11 13 16 18
15 15 15 15 16 16 15 14 15 15 16 14 13 13 10 9 9 10 12 9 10 11 11 13 13 13 12 11 10 11 10 12 15 17 16 17 17 15 14 12 12 13 12 13 10 7 8 7 5 7 8 7 7 8 7 6 3 3 6 7 5 4 3 5 6 8 9 9 8 8 9 10 11 12 12 12 14 15 16 11 8 6 2 5 6
14 17 17 16 16 17 16 15 14 13 13 13 13 13 13 12 12 9 4 5 8 11 11 12 13 13 14 12 11 11 10 11 12 14 13 14 14 14 12 12 10 10 12 11 9 9 11 11 12 14 13 12 10 8 7 7 7 7 7 6 5 4 3 4 5 7 7 8 8 7 8 8 10 12 13 12 14 16 15 10 9 4 9 8 8
16 17 15 15 15 14 16 16 16 16 15 15 16 15 14 14 16 14 16 17 14 13 11 9 9 12 14 13 11 11 10 11 12 14 16 14 15 16 17 16 12 11 12 10 9 8 7 10 12 12 12 11 10 7 6 5 6 8 7 6 3 2 4 4 6 7 8 6 3 6 9 9 9 9 12 13 12 14 14 10 7 8 7 10 9
15 14 15 15 15 14 15 14 14 15 14 14 15 14 14 14 14 14 15 14 14 15 15 16 16 15 14 14 13 14 14 14 14 14 11 10 10 14 15 16 17 12 10 11 10 11 11 11 12 12 11 11 11 9 10 12 13 13 13 11 9 11 11 11 10 11 8 5 6 6 5 7 9 9 9 11 14 14 15 14 7 7 6 6 10
6 7 9 9 9 11 12 12 12 13 13 12 12 13 13 12 13 14 14 13 14 15 15 15 16 16 16 15 12 12 13 13 12 11 9 9 10 10 11 13 12 11 12 13 12 13 15 13 12 12 9 12 8 5 7 7 11 11 10 10 10 11 11 12 10 11 4 5 4 4 3 4 4 10 12 12 11 11 12 12 11 8 3 5 9
5 4 4 4 5 5 7 7 10 10 12 13 14 14 13 12 14 13 11 10 12 13 12 14 14 13 11 9 10 11 11 11 10 11 12 12 11 10 10 11 12 11 13 13 12 11 12 9 12 14 14 14 13 12 12 11 11 10 13 14 15 15 14 11 11 14 12 9 4 3 6 8 11 9 10 11 10 10 11 13 15 13 8 4 5
7 8 7 7 6 5 5 5 7 9 11 13 13 11 10 10 11 11 10 9 6 8 12 11 10 10 11 9 9 10 9 9 6 2 4 5 9 11 12 11 10 10 8 10 10 9 11 15 16 16 14 12 14 14 14 14 14 14 15 15 15 16 17 17 17 17 17 14 11 7 5 7 8 7 8 9 12 13 12 13 12 12 11 5 8
4 6 7 7 7 7 4 7 8 7 9 10 12 14 13 16 12 11 11 13 16 15 8 8 6 10 13 10 7 9 9 6 2 2 6 6 7 7 5 6 5 6 9 11 6 8 9 10 10 11 12 12 13 12 12 13 13 14 14 11 15 16 15 15 16 16 16 15 13 12 12 10 10 7 5 5 10 9 9 7 11 12 11 9 9
5 6 7 8 7 8 6 6 4 9 8 10 10 11 10 12 12 12 9 8 11 13 14 13 11 8 12 10 6 8 9 6 4 6 7 7 7 6 6 6 7 7 6 10 11 12 11 11 12 12 12 14 14 13 14 14 13 12 12 11 13 13 12 14 13 11 12 12 12 12 11 11 11 9 5 7 8 10 10 9 7 8 8 9 5
6 5 7 7 9 8 7 9 10 7 9 8 9 10 11 10 8 9 9 9 10 12 12 12 12 11 9 8 7 6 5 6 6 6 4 5 5 5 4 4 5 6 3 3 11 12 10 14 14 14 14 14 12 12 12 12 12 11 10 12 12 11 11 12 10 10 11 11 11 9 10 10 10 10 7 6 5 8 9 9 10 9 8 4 3
7 7 9 9 10 7 9 10 11 11 8 5 8 7 9 10 11 5 8 8 10 10 10 10 10 10 10 10 9 8 6 4 5 4 5 4 6 7 9 9 9 6 9 13 13 13 12 13 14 12 12 12 11 11 12 12 11 10 9 10 11 11 11 11 9 13 11 11 9 9 9 9 8 8 7 5 6 6 7 8 8 7 6 4 4
3 5 5 8 12 11 8 9 9 9 9 10 8 1 8 10 11 11 10 6 7 9 7 7 7 8 9 8 6 5 3 2 3 5 6 7 7 9 7 7 10 10 10 11 12 12 11 12 11 11 11 11 10 11 12 11 11 13 13 13 11 11 10 11 14 14 12 12 11 10 10 10 9 9 9 8 6 4 7 7 8 8 8 7 5
3 6 10 8 10 13 8 6 8 7 8 9 8 11 8 3 11 11 10 9 8 8 5 3 4 3 5 6 5 4 3 4 5 7 9 7 8 9 11 14 14 12 13 13 12 11 9 12 12 12 11 12 11 14 15 14 14 13 12 11 10 11 11 12 13 13 13 13 14 14 13 12 12 10 7 9 10 11 11 10 9 8 7 7 6
9 6 7 8 9 7 8 6 6 8 8 7 5 8 7 11 7 4 10 12 12 10 8 5 2 2 5 7 8 8 8 6 8 11 14 15 14 14 16 12 13 11 12 13 12 12 10 11 12 12 12 13 12 13 11 10 10 8 8 10 11 12 12 13 13 13 12 12 13 13 13 13 12 10 9 9 9 9 8 8 8 8 7 7 7
6 5 7 7 4 6 7 4 5 3 3 3 5 7 9 11 13 12 4 10 10 10 11 9 6 6 5 5 5 6 6 6 8 13 13 17 17 17 14 12 11 11 11 11 12 11 11 11 11 12 12 11 9 9 6 4 6 8 8 11 10 11 10 11 12 10 11 11 11 10 10 11 12 11 9 9 9 9 8 9 9 8 8 7 6
4 3 2 2 4 6 4 4 2 2 2 5 5 6 11 13 13 13 12 12 13 16 16 9 4 1 3 5 5 6 4 6 12 12 12 13 15 13 12 11 12 12 11 11 11 11 11 11 11 11 10 10 8 5 5 6 7 8 8 8 11 10 9 12 10 10 9 9 9 9 9 10 10 11 11 11 10 10 10 9 8 9 10 9 8
3 2 4 4 3 5 6 2 2 4 7 9 11 12 11 11 12 12 13 13 11 13 12 10 7 3 3 3 8 10 16 14 10 10 10 11 11 11 12 13 14 13 12 11 11 10 10 10 10 11 9 8 6 9 9 7 6 6 8 9 10 9 9 8 8 8 8 8 8 8 8 8 8 8 8 9 10 9 9 10 10 9 10 10 9
2 3 4 6 6 5 4 5 6 10 8 11 12 12 11 12 11 11 12 12 11 9 9 9 8 7 5 5 8 12 15 9 8 7 10 11 12 12 13 13 12 12 10 9 10 8 9 10 9 10 10 9 11 11 10 7 4 6 7 7 6 5 3 3 3 5 6 6 8 8 9 9 8 7 8 9 8 8 9 9 9 9 8 8 9
8 5 4 5 6 8 10 12 12 10 10 12 11 11 11 10 8 9 10 10 8 7 6 6 9 5 6 9 8 9 13 12 11 11 10 11 11 12 12 11 10 9 8 8 8 7 8 10 9 8 7 8 8 10 10 8 3 4 7 8 5 5 2 2 2 3 3 4 5 6 8 8 8 9 10 9 6 7 8 7 8 8 8 7 7
7 7 7 7 9 8 7 12 10 10 9 9 11 9 8 8 7 8 9 7 8 8 6 5 6 8 10 14 12 13 15 12 12 12 11 11 11 11 10 9 8 7 5 5 8 7 7 9 5 4 4 7 9 9 7 8 6 3 4 6 4 3 3 1 1 1 2 3 3 4 4 4 5 6 5 5 8 8 8 9 8 7 7 7 8
4 7 7 9 9 9 9 11 10 11 10 9 7 5 6 8 7 7 8 7 9 9 9 6 8 11 12 12 15 14 14 13 9 11 9 10 10 9 9 9 7 6 5 7 9 9 3 6 3 4 6 7 7 8 8 7 3 6 5 5 6 3 1 1 2 4 6 4 4 3 3 4 4 4 4 5 6 6 7 7 8 8 7 7 6
6 9 9 9 10 4 12 10 11 9 9 6 4 3 4 5 3 5 9 9 8 10 12 10 8 9 9 12 13 14 12 11 9 9 9 9 10 9 8 7 7 8 7 7 8 8 8 6 6 6 6 5 8 7 7 8 2 7 8 8 6 8 8 7 6 5 6 7 5 5 4 4 4 5 6 7 4 5 7 6 6 7 7 7 5
7 11 11 11 10 3 10 10 12 11 9 6 4 3 3 3 4 5 6 5 7 8 9 9 8 8 9 9 10 11 9 10 7 9 9 9 8 8 7 7 6 6 5 5 4 6 6 6 5 5 5 6 7 8 9 10 10 9 7 8 7 7 7 7 8 9 4 4 5 5 6 3 4 5 6 7 3 2 4 5 5 5 7 7 7
7 6 10 10 9 3 9 10 9 10 9 9 6 5 5 5 7 7 6 6 9 9 6 8 8 7 9 10 8 8 8 9 9 9 9 8 8 8 8 6 5 3 2 1 1 2 3 3 3 3 5 6 7 9 10 9 9 9 8 8 7 6 3 5 6 9 10 8 8 7 9 5 3 4 6 6 7 4 4 5 5 6 6 6 6
10 5 7 9 9 5 9 13 11 9 9 7 7 7 4 4 5 6 5 5 6 5 6 6 7 6 5 5 4 5 10 9 9 8 9 9 7 5 4 4 2 1 1 1 1 2 1 1 2 2 4 4 8 9 8 9 8 8 8 8 8 8 8 8 7 6 7 6 5 8 6 2 2 4 6 8 7 7 5 8 7 8 9 8 6
5 5 4 7 8 11 5 11 15 10 10 9 8 7 4 2 5 5 5 3 4 7 9 7 8 7 6 7 5 6 6 8 9 9 9 9 7 6 5 4 4 5 4 3 2 2 2 1 1 5 8 8 8 8 7 7 7 8 7 7 7 7 10 8 6 6 5 7 7 6 3 2 1 3 6 7 8 4 6 8 7 9 9 9 8
2 8 5 6 12 12 8 5 12 11 10 10 10 10 7 6 7 6 9 6 3 3 5 9 8 8 9 5 3 3 4 8 11 10 10 10 9 6 7 5 4 3 3 4 4 4 4 2 2 7 9 7 7 7 7 7 7 7 7 6 9 10 9 8 5 7 8 8 7 8 3 2 4 4 5 5 8 6 5 5 5 7 9 9 10
7 6 4 7 9 12 9 7 13 11 10 10 11 9 8 8 9 10 5 6 8 8 9 10 9 9 9 9 4 4 3 4 12 12 9 10 8 8 6 4 2 2 2 1 3 4 3 2 5 8 7 7 6 6 5 5 4 6 4 7 8 9 9 9 7 9 10 8 7 6 2 5 3 2 2 3 5 6 6 7 7 6 6 8 9
8 8 9 9 11 10 10 8 11 13 12 12 12 10 11 7 7 12 11 9 6 7 8 9 9 10 9 7 5 6 3 2 8 11 10 10 9 8 6 4 3 3 2 2 1 3 7 8 8 8 7 6 5 4 4 4 3 3 6 8 9 9 10 9 10 10 11 8 6 4 6 8 5 5 5 6 4 6 7 7 9 9 8 7 6
Wind_Speed
6 8 6 5 5 6 6 5 5 4 5 6 6 5 5 8 9 9 9 8 8 7 7 6 7 7 6 5 5 4 4 4 4 5 6 5 5 5 5 5 6 5 6 5 4 5 6 5 5 5 5 5 5 4 4 4 3 4 4 5 4 4 7 6 7 6 2 3 8 8 8 9 6 8 8 7 6 5 5 5 5 6 5 5 5
11 9 8 5 3 5 5 4 5 4 6 7 6 5 7 9 10 9 9 7 7 8 7 6 6 7 6 6 5 5 5 4 4 5 6 5 4 5 5 5 5 5 5 5 5 5 5 5 5 6 6 6 5 5 4 5 5 3 2 3 2 4 4 3 4 6 7 3 4 5 8 8 7 8 9 9 7 6 5 5 5 6 6 6 6
8 8 6 6 2 3 4 5 4 6 7 7 7 8 9 9 9 10 9 7 6 6 7 6 7 7 6 6 5 5 5 5 4 5 5 5 4 3 5 4 5 5 4 6 6 5 6 5 3 3 3 5 4 5 4 5 4 4 4 2 3 4 5 6 5 4 9 6 6 8 7 7 7 9 8 9 9 9 8 6 7 6 6 7 7
8 8 7 7 7 5 5 5 6 6 8 7 9 9 9 9 8 9 8 7 6 5 6 6 6 6 7 5 6 5 6 5 4 6 6 5 5 4 3 4 5 6 5 5 4 4 5 5 5 5 3 3 3 3 3 3 2 4 4 3 3 3 5 6 7 7 5 8 6 9 8 8 4 8 8 8 9 8 9 7 6 8 8 8 8
9 12 6 7 5 3 4 5 6 5 3 5 9 10 11 9 8 9 8 6 5 6 5 6 5 6 6 6 6 6 5 4 3 5 4 4 4 4 4 5 6 4 4 4 6 5 6 5 4 4 4 4 3 3 3 3 3 2 3 3 3 2 4 5 6 8 9 9 7 4 7 6 5 7 8 8 6 7 6 7 8 9 9 9 8
3 4 4 3 2 1 5 5 5 4 4 7 7 10 10 10 9 8 7 6 6 6 6 5 5 6 6 7 7 6 4 5 4 2 4 4 3 3 2 3 4 5 4 5 6 7 6 6 5 6 5 5 3 1 3 5 4 3 1 3 2 2 4 5 6 7 9 9 9 6 5 7 3 5 9 9 9 8 6 6 5 8 9 8 8
5 4 7 6 6 8 9 5 3 8 5 8 5 10 10 9 9 8 6 7 7 6 6 5 5 6 6 6 8 9 8 7 6 5 6 4 3 4 3 3 3 1 4 5 7 6 6 5 5 5 6 5 4 0 2 4 4 4 3 4 2 3 6 7 6 7 8 7 4 6 7 5 6 6 7 9 10 10 11 7 6 8 8 10 9
0 4 7 7 8 8 8 3 3 5 6 6 5 8 10 9 8 6 7 7 6 6 6 5 5 10 9 8 8 8 8 8 7 6 5 5 3 4 4 5 4 4 5 5 4 6 6 5 5 4 4 4 4 4 3 5 4 1 1 3 3 4 6 6 6 7 7 6 6 7 7 7 3 2 5 6 4 4 5 7 10 9 9 9 10
5 5 4 6 7 4 3 3 3 1 5 1 1 8 9 8 7 8 8 6 5 5 5 9 11 10 9 9 9 8 9 7 5 5 5 5 4 5 3 3 2 2 5 5 5 6 4 4 4 4 5 7 6 4 2 3 4 5 1 2 3 5 4 5 7 6 7 6 5 4 6 5 6 6 5 8 9 11 9 7 8 9 8 7 8
6 6 8 8 5 6 4 5 5 1 7 5 0 1 7 6 7 8 8 6 4 5 9 10 10 10 10 9 9 8 7 5 5 7 5 2 3 5 5 4 3 0 2 6 4 5 5 4 4 7 9 9 8 8 9 10 8 6 4 4 5 5 6 5 4 5 5 5 6 6 5 7 7 7 7 8 11 9 6 6 8 8 5 5 5
8 6 9 9 9 8 6 7 6 4 5 5 5 4 8 7 6 7 8 10 10 10 10 10 9 9 10 10 9 8 7 5 8 6 6 7 4 6 5 4 2 3 2 6 6 4 3 4 4 6 7 6 6 7 9 9 10 9 8 7 6 5 5 6 5 4 3 3 1 1 4 7 7 7 7 7 5 9 10 9 10 7 7 7 8
12 12 6 6 9 9 9 9 8 6 6 5 5 7 8 9 10 9 10 12 12 10 10 9 8 8 9 10 10 8 7 9 10 9 6 8 7 5 5 4 3 3 3 7 4 4 4 4 3 3 3 3 3 4 6 8 9 10 8 8 9 8 6 5 3 3 2 2 3 3 2 2 2 2 4 2 4 1 1 2 7 9 9 9 7
13 13 12 9 6 8 9 9 8 6 3 1 1 8 11 11 11 11 11 9 11 11 9 9 8 8 10 11 10 8 7 11 12 11 9 9 9 6 5 5 5 3 4 5 6 4 3 3 5 7 6 11 6 4 2 2 5 8 9 7 5 7 7 6 4 3 5 2 0 2 2 2 0 1 2 1 2 4 4 7 7 7 7 8 8
14 13 13 13 11 8 9 10 10 8 8 4 2 9 11 10 10 10 9 11 12 10 9 10 8 9 9 10 9 8 9 10 12 12 11 10 9 7 4 5 4 4 4 5 4 4 4 6 7 7 7 9 8 8 6 3 3 3 3 3 3 3 3 4 4 3 2 1 2 3 3 3 2 3 3 2 1 3 4 6 6 6 7 9 8
15 14 14 14 12 11 8 10 10 9 10 7 7 10 10 10 10 8 9 11 11 9 8 9 8 9 9 9 9 9 7 11 12 13 12 11 11 8 6 2 3 5 8 9 9 8 8 9 9 8 8 8 7 8 6 5 4 5 5 6 7 6 8 9 8 6 7 6 5 4 5 3 4 4 5 2 3 3 3 3 4 4 6 4 4
15 14 15 14 12 11 9 9 11 10 9 9 10 10 9 9 9 9 11 11 9 9 8 9 9 9 8 9 10 9 9 14 14 14 14 12 11 7 6 6 4 8 10 10 10 9 9 9 9 9 8 9 10 13 10 6 8 7 7 6 7 7 6 6 8 9 8 6 4 3 3 3 3 2 1 2 4 5 5 2 2 2 3 5 7
14 14 13 13 12 11 11 10 12 12 11 11 11 9 9 9 7 6 13 10 9 9 8 8 7 8 9 10 10 8 9 12 14 14 14 13 10 8 8 9 10 11 10 9 8 10 10 9 8 8 8 9 9 13 13 11 8 8 6 5 4 5 6 8 10 10 12 12 11 10 9 9 8 8 7 7 4 2 2 5 6 4 4 4 5
12 13 12 11 12 12 12 11 11 12 11 11 9 8 7 7 8 7 10 11 9 8 9 10 9 9 10 9 8 9 8 11 14 15 15 14 11 8 7 8 9 9 9 9 8 8 11 16 11 9 8 5 10 13 13 10 9 7 7 6 7 6 5 6 6 6 7 8 8 10 9 10 12 11 9 10 9 3 2 7 5 4 6 2 4
12 12 11 9 11 11 12 12 12 13 12 10 9 8 8 7 6 9 9 10 9 7 8 9 9 9 9 9 12 12 9 9 14 16 16 14 10 7 7 8 9 7 7 7 7 7 8 10 12 10 7 6 10 10 11 9 6 5 4 5 5 4 4 5 7 9 10 10 9 9 9 10 8 7 9 13 12 6 3 5 6 4 7 5 6
9 9 9 10 11 12 11 12 12 11 11 9 8 7 5 6 6 8 9 9 9 8 8 9 10 9 9 9 8 8 9 8 11 16 16 15 13 9 8 9 7 6 6 6 6 6 7 6 8 10 10 9 8 8 7 7 4 2 2 3 3 4 3 4 3 4 5 5 6 6 6 6 6 6 6 6 7 6 4 4 3 3 4 6 6
7 7 8 10 12 12 11 12 12 10 9 8 7 7 6 7 8 10 10 8 8 7 8 7 9 10 8 8 8 7 6 9 10 15 15 15 15 12 9 9 5 5 6 6 6 6 5 5 4 6 8 7 7 6 5 3 3 2 1 1 2 2 3 4 5 6 4 5 5 6 7 6 6 6 6 6 7 7 6 4 4 6 6 6 6
7 7 8 9 8 10 11 10 9 9 9 8 8 8 7 8 9 8 7 7 7 7 7 8 9 8 7 7 9 8 7 9 8 12 14 14 14 14 9 7 5 4 7 6 5 5 4 3 3 5 8 7 6 5 5 4 4 2 3 5 8 8 5 3 3 4 4 5 5 6 7 6 7 7 7 7 8 9 8 8 7 4 4 6 7
9 9 9 9 10 10 9 9 9 9 9 9 8 8 6 6 5 4 5 5 6 7 7 8 8 7 7 6 6 6 5 6 10 11 13 14 14 13 12 9 10 7 7 6 5 4 3 3 3 6 7 6 6 6 6 4 3 3 5 6 4 3 2 2 3 4 5 5 5 5 6 6 6 6 6 7 8 9 9 7 5 4 1 2 3
9 10 10 10 10 10 9 9 8 7 8 7 7 8 7 6 5 4 2 1 3 6 6 7 7 7 8 6 5 5 5 5 9 12 10 12 12 12 11 10 9 6 7 6 5 5 6 5 6 10 10 9 8 7 7 6 5 6 5 4 3 1 1 2 3 4 3 5 5 3 4 4 6 7 7 7 7 7 8 6 6 2 4 5 5
10 10 9 9 9 9 10 10 10 10 9 9 8 7 8 7 9 8 9 8 7 7 6 5 5 7 7 7 6 5 5 6 6 9 13 12 13 14 14 14 11 10 7 5 5 5 6 9 11 10 9 8 7 6 5 5 6 7 7 5 1 1 2 2 4 4 5 4 2 4 4 4 4 4 5 6 6 7 7 6 4 4 4 5 5
8 8 9 8 8 8 9 9 9 9 8 8 7 7 6 6 7 6 7 7 7 8 7 8 9 8 7 6 6 5 5 6 7 7 7 8 9 12 12 12 10 9 8 5 6 6 8 9 10 10 10 8 6 5 6 6 8 10 10 9 6 7 6 7 6 7 5 3 4 3 2 4 4 5 5 6 7 7 7 8 5 4 3 2 5
4 4 5 5 6 6 7 7 7 7 7 7 7 6 7 6 7 7 7 6 7 8 8 8 8 8 7 5 5 6 6 6 5 5 5 5 5 5 6 7 8 8 7 7 8 7 8 7 6 7 6 9 7 6 7 6 7 7 6 6 7 7 7 8 7 7 4 3 2 1 1 3 2 5 7 6 6 6 6 6 6 5 2 1 3
3 2 3 3 3 3 4 6 6 5 5 6 7 7 6 5 7 7 6 5 6 7 7 8 7 5 6 5 5 5 5 4 4 5 5 5 5 4 5 6 6 5 6 6 6 5 5 6 8 8 8 8 7 7 7 7 7 6 8 8 8 8 9 10 10 8 7 6 3 1 2 3 5 4 5 6 5 5 4 6 5 7 4 2 1
4 4 3 4 4 3 3 3 4 5 6 7 7 6 5 6 5 6 6 4 3 4 6 6 5 4 5 4 4 5 4 4 2 2 3 4 5 6 6 6 5 5 4 6 4 4 6 8 8 8 7 7 7 7 7 8 8 8 9 8 8 8 8 8 8 8 8 7 7 4 3 4 5 4 4 5 5 6 5 5 5 5 6 3 5
3 4 5 5 4 4 2 5 3 4 5 5 6 8 10 12 8 6 5 10 13 13 7 4 4 5 6 5 3 5 5 3 1 1 2 4 6 6 4 4 4 4 6 6 2 5 6 6 6 7 7 7 7 7 7 7 7 7 8 8 8 8 8 8 7 7 7 7 7 7 7 7 7 5 4 3 6 6 5 5 5 5 5 6 5
4 4 4 5 6 5 4 2 3 5 4 5 6 6 5 7 10 10 8 7 9 11 12 11 10 7 7 5 4 7 7 4 2 3 6 6 5 5 6 6 6 6 6 6 7 7 6 7 7 7 7 8 7 7 7 7 7 7 7 7 7 7 7 7 7 6 7 6 6 5 4 5 5 5 4 4 4 5 6 5 4 5 4 3 2
3 3 5 5 5 4 5 6 6 4 5 5 5 6 6 5 4 7 8 8 8 9 10 10 10 9 7 5 5 3 3 4 5 5 4 5 5 3 3 4 4 3 2 1 6 6 7 8 7 7 7 8 7 7 7 7 7 6 6 7 7 6 6 6 5 5 6 6 6 5 5 4 5 5 5 3 4 4 5 5 5 5 5 3 1
4 4 5 5 6 5 6 6 6 6 4 2 1 1 4 5 6 3 4 6 7 8 8 9 9 9 9 9 8 7 5 3 4 4 5 4 5 6 6 8 7 3 6 8 7 7 7 6 7 6 7 7 6 7 7 7 6 6 6 6 6 5 5 5 4 6 6 6 6 6 6 5 5 5 4 3 3 3 4 4 5 5 4 2 3
2 4 4 5 6 6 4 5 5 5 5 4 3 0 2 2 5 6 5 3 4 6 6 6 6 7 8 7 5 4 3 2 1 2 4 5 5 7 5 4 8 7 8 7 7 6 6 7 7 7 7 6 6 6 7 6 6 6 5 5 6 6 6 6 7 7 6 6 6 6 6 6 5 5 5 5 4 3 3 4 5 5 4 4 3
3 5 8 7 5 6 5 3 5 5 5 6 5 5 4 2 4 5 5 5 5 5 3 1 4 3 3 5 5 3 1 3 5 6 8 7 7 8 10 8 8 7 7 7 7 6 6 7 7 7 6 7 6 7 7 6 6 6 6 6 6 6 6 6 6 6 6 6 7 7 7 7 7 6 5 6 6 6 6 6 5 5 4 4 4
4 3 5 5 6 5 5 3 3 6 5 4 4 6 4 5 3 3 5 5 5 6 4 2 0 1 3 5 7 8 7 6 8 10 12 13 13 12 9 6 7 7 7 7 7 7 6 6 7 6 6 6 6 7 6 5 5 6 5 4 5 5 5 6 6 7 7 7 7 8 8 7 7 6 6 6 5 5 5 5 4 4 4 4 3
3 3 4 4 3 4 4 2 3 2 3 2 3 5 6 7 8 6 2 4 6 5 5 3 2 3 3 2 3 5 6 5 8 11 12 14 14 11 7 7 6 6 7 6 6 6 6 6 6 6 6 6 5 3 2 3 4 4 4 5 5 6 6 6 6 6 7 7 6 6 5 6 6 6 5 5 5 5 4 4 5 5 4 5 4
2 2 1 1 3 4 3 2 1 1 1 4 4 4 7 7 8 7 7 7 7 8 6 3 3 1 2 3 4 3 2 6 11 10 11 11 9 7 7 7 7 6 6 6 6 6 6 6 6 6 6 5 3 3 3 3 3 3 4 5 6 6 7 7 7 6 6 6 6 5 5 6 5 5 5 5 5 5 6 5 5 4 4 5 5
0 1 3 2 2 3 3 1 0 3 5 6 7 8 7 7 7 7 7 7 6 6 5 4 2 1 2 2 4 7 10 7 6 6 7 7 6 6 7 7 6 6 6 6 6 6 5 6 5 6 4 4 4 5 4 4 2 4 5 5 6 5 6 5 5 4 4 5 5 5 5 5 5 5 5 5 6 5 5 5 6 5 5 5 5
2 2 4 5 4 3 3 4 5 7 5 6 6 6 7 6 6 5 6 6 5 4 5 5 4 4 2 2 5 7 8 7 5 5 6 6 7 6 6 7 6 6 5 5 5 5 5 5 5 4 4 4 4 5 5 4 3 4 4 5 5 3 2 1 2 3 3 3 3 5 5 5 5 4 5 5 5 4 5 5 4 4 4 4 5
4 3 3 5 5 4 5 7 6 6 6 6 5 5 4 4 4 5 5 5 5 3 4 4 4 3 3 6 6 7 8 7 6 6 6 6 6 6 6 6 6 5 5 5 5 5 5 4 3 3 4 4 5 5 6 5 2 2 5 3 3 2 1 0 0 1 1 2 3 3 3 3 4 5 5 5 4 5 4 4 4 5 5 4 5
4 4 5 5 7 2 4 3 6 5 5 5 5 4 4 4 4 4 4 4 5 4 2 3 4 5 8 12 11 12 9 7 7 6 6 6 6 6 6 6 5 5 3 4 5 3 4 4 1 2 3 5 6 5 5 5 4 2 3 4 3 2 1 1 1 1 1 1 2 2 3 2 2 2 2 3 4 5 5 5 5 5 5 5 5
3 4 5 5 6 1 6 4 5 6 5 5 3 3 3 5 4 4 4 4 6 5 3 3 5 7 8 10 11 11 8 7 6 6 6 6 6 6 6 5 4 3 3 5 5 4 1 2 0 3 5 6 4 4 4 4 1 4 3 3 2 1 0 1 1 2 3 3 3 2 2 3 2 3 3 3 3 4 4 4 4 5 4 4 3
4 6 5 3 4 2 5 6 6 5 4 4 3 2 2 3 3 3 4 6 5 6 6 6 5 6 5 7 8 8 7 6 6 5 5 6 6 5 4 3 4 5 4 4 5 4 4 4 4 4 3 3 5 5 5 3 1 3 5 4 3 4 4 4 4 4 3 3 3 4 3 2 3 3 4 4 3 3 4 4 4 4 4 4 3
3 6 5 5 5 1 2 5 6 6 5 4 3 1 1 2 3 4 4 4 5 5 6 6 5 5 6 5 6 7 6 6 4 5 5 5 4 5 4 4 4 3 3 3 3 4 4 4 4 4 3 4 5 5 5 6 5 5 4 4 4 4 3 5 4 5 3 3 4 3 3 2 3 4 4 4 2 1 3 3 3 4 4 5 4
4 4 5 4 2 1 2 3 5 6 5 4 5 4 3 3 4 4 4 4 6 6 4 5 5 4 4 4 3 6 5 5 5 5 5 5 5 5 4 4 3 2 2 1 1 2 2 2 2 2 3 3 4 5 5 5 5 4 4 3 3 2 2 3 3 4 5 4 4 5 5 3 2 3 4 5 4 3 3 3 3 4 4 4 4
2 2 4 3 2 1 3 4 5 4 4 5 4 4 3 3 4 4 3 4 4 4 4 5 5 4 3 3 3 5 6 6 5 5 5 5 4 3 3 3 2 0 0 0 0 1 0 0 1 1 3 3 4 4 4 4 4 4 4 3 2 2 2 2 3 3 4 3 2 3 4 1 1 2 4 5 4 4 3 4 4 5 6 5 4
2 2 3 4 5 4 0 5 5 5 5 5 5 5 3 1 4 4 3 2 3 5 6 4 4 4 4 4 4 3 3 4 4 5 5 4 4 4 3 3 3 3 2 2 1 2 1 1 1 4 5 4 4 4 3 3 3 4 4 3 3 3 4 3 2 3 3 3 3 2 2 2 1 2 3 4 4 3 4 4 4 5 5 6 5
1 3 3 3 5 5 2 2 5 6 6 6 6 5 3 4 4 4 6 4 2 3 3 5 5 4 4 3 2 1 2 4 5 5 5 4 4 4 4 3 3 2 3 3 3 3 2 1 2 5 4 4 4 4 3 3 4 4 3 3 5 7 6 6 4 4 6 4 4 3 2 0 2 1 2 3 4 4 3 3 4 4 5 5 6
4 4 1 2 3 6 4 4 6 6 5 6 6 5 5 3 4 7 3 3 5 5 6 6 6 6 5 4 3 3 2 2 7 5 5 6 5 4 4 3 2 1 2 1 2 3 2 1 4 4 4 4 4 3 3 2 3 3 3 3 6 7 7 7 6 7 6 4 4 3 1 2 2 2 2 2 3 4 4 4 4 3 3 4 5
5 4 5 5 5 6 6 2 7 5 7 6 6 6 5 4 4 4 7 6 4 4 5 5 5 4 6 3 3 3 1 0 6 6 6 6 5 5 4 3 2 2 1 1 1 3 5 4 4 4 4 3 2 2 2 2 1 2 4 6 6 7 7 7 6 8 8 6 3 3 2 4 3 3 3 4 3 4 5 5 5 5 5 5 4
Wind_Direction
222 240 230 224 185 182 183 180 181 191 172 168 166 162 169 140 135 133 127 131 133 133 139 140 137 138 139 146 150 152 138 138 119 136 130 145 159 156 158 155 153 170 154 167 171 170 179 185 173 167 158 156 170 178 162 181 187 191 178 149 136 153 141 147 139 130 70 139 144 157 162 147 156 163 157 169 175 194 190 184 174 176 188 195 200
194 209 213 213 208 187 179 172 184 184 180 173 166 170 156 134 130 125 126 135 132 139 149 149 149 148 147 158 154 146 142 137 133 127 128 144 162 159 169 168 162 179 159 176 184 182 175 179 179 162 167 160 166 179 178 181 184 197 228 139 152 153 159 112 141 133 152 141 123 138 157 171 150 171 164 171 186 186 194 187 186 193 193 193 201
192 208 206 187 228 235 185 176 190 196 186 176 171 168 141 129 124 126 131 135 136 141 155 146 151 154 148 162 137 144 138 139 138 120 143 148 170 177 167 159 152 178 177 179 180 169 170 177 149 138 150 155 171 188 184 184 178 179 205 183 191 149 167 154 135 128 150 173 161 154 173 181 168 176 178 180 182 184 188 191 190 199 213 200 203
171 217 202 163 208 208 197 184 199 200 186 177 169 149 134 125 123 126 131 139 140 152 149 150 140 141 155 140 136 132 122 138 130 143 155 160 166 185 174 165 160 180 170 178 164 149 136 125 137 132 105 148 170 191 198 165 174 182 188 203 185 159 158 170 157 138 154 144 192 168 181 170 193 175 175 176 175 185 196 193 192 199 208 208 210
174 193 191 154 173 260 212 203 205 197 200 195 163 146 130 123 125 129 135 143 144 146 146 146 139 151 143 135 139 123 130 143 126 139 159 149 161 165 135 148 166 158 170 169 154 136 135 140 150 128 121 129 133 181 210 208 234 191 181 164 172 166 170 176 155 145 145 159 174 198 172 185 176 169 168 170 186 192 192 194 198 203 208 211 209
195 97 77 91 159 153 264 234 202 138 167 267 169 136 129 125 125 131 140 145 143 145 143 148 139 150 126 142 137 123 87 57 44 69 139 134 134 133 122 127 121 139 148 135 136 137 141 146 142 137 146 146 144 184 200 216 210 230 179 181 190 155 161 182 156 149 146 158 163 170 196 175 158 173 182 176 172 188 203 210 207 209 208 218 221
20 130 187 177 171 187 212 229 142 153 214 252 202 130 126 125 129 136 137 133 140 139 136 138 144 128 95 88 81 84 77 64 47 37 36 37 101 100 91 100 104 158 99 103 130 127 124 138 150 158 152 156 136 157 192 198 220 204 177 211 196 136 167 165 149 149 148 150 153 171 182 217 173 168 192 184 184 182 191 199 218 221 213 210 222
295 193 186 179 195 197 212 191 64 147 187 239 200 127 124 126 131 125 125 125 131 131 136 125 83 79 90 86 80 79 77 63 42 33 35 36 34 97 95 76 90 100 84 98 99 117 137 143 141 150 140 139 141 192 199 156 204 193 235 217 233 165 174 152 150 157 162 163 162 173 194 193 240 206 156 167 180 246 230 191 205 213 219 218 212
166 175 195 197 202 187 152 161 112 152 128 230 307 124 125 124 123 132 129 127 130 132 136 97 99 89 78 80 77 70 67 60 44 18 19 23 31 49 29 77 76 87 107 124 127 131 134 136 139 143 122 102 103 116 97 113 137 102 18 233 190 159 144 139 162 161 172 171 179 170 172 193 204 201 154 176 191 201 209 205 218 216 214 216 231
162 179 181 190 171 159 152 119 110 232 135 124 264 331 99 100 120 129 125 118 102 81 81 95 94 98 90 77 73 67 60 55 28 28 26 8 25 56 44 32 48 21 85 108 122 121 134 138 133 122 116 118 118 110 94 89 91 100 127 107 107 94 98 99 118 153 145 173 199 166 177 197 205 204 200 200 202 205 198 204 220 232 229 236 270
351 193 169 177 156 154 151 134 116 104 117 123 172 153 95 88 87 84 74 80 81 82 88 85 87 85 87 84 73 67 56 32 21 41 35 23 34 57 44 28 3 61 106 124 132 129 111 124 131 127 117 106 112 128 118 116 110 105 95 93 99 114 105 90 97 110 129 138 184 157 191 202 216 209 208 219 188 186 204 200 212 215 211 210 232
13 6 2 109 122 128 132 131 125 138 145 168 170 122 95 84 82 86 89 86 85 83 81 83 85 88 85 78 69 62 54 19 26 35 41 32 38 54 41 28 356 21 57 104 129 126 142 130 142 122 103 83 104 115 112 121 126 124 124 106 91 74 86 124 131 91 116 115 108 145 137 191 238 217 247 247 251 299 285 220 214 212 215 216 221
14 18 15 12 63 100 111 114 105 102 58 8 187 101 94 95 95 91 89 94 90 85 87 84 76 76 81 78 68 51 47 17 24 21 28 33 30 53 32 24 14 29 86 97 116 113 112 105 78 47 38 28 34 21 55 78 111 129 128 110 101 109 106 90 74 134 156 127 132 203 171 170 109 255 189 216 187 206 236 245 238 228 216 209 223
23 16 22 17 7 49 80 88 88 89 82 47 62 87 91 91 94 98 102 93 88 89 85 83 82 76 78 81 74 56 44 11 26 26 19 29 31 45 37 19 29 56 68 77 83 105 112 100 82 58 28 26 15 9 354 28 9 37 48 60 95 101 69 46 61 67 90 156 164 229 238 165 198 229 233 177 149 238 234 246 247 242 233 223 221
28 21 23 23 15 21 49 80 84 84 87 84 73 75 83 83 81 86 87 86 87 86 85 83 77 76 73 76 74 58 36 18 29 30 22 23 32 44 36 21 68 68 61 58 59 61 72 76 76 71 50 33 16 349 351 354 20 29 24 14 4 17 51 46 32 21 15 1 347 316 326 345 322 303 302 301 254 231 203 213 219 227 245 263 306
42 25 26 23 20 20 23 65 76 69 67 73 70 69 73 78 91 94 85 81 83 88 77 79 79 77 71 68 68 54 31 22 26 31 29 23 42 47 36 26 38 64 56 51 49 49 59 69 74 65 55 43 2 12 20 32 47 39 36 24 26 48 53 36 28 35 32 27 21 357 320 293 202 219 242 285 329 330 333 305 307 289 293 288 265
44 36 27 25 19 27 23 35 65 70 66 63 64 58 72 76 61 70 91 83 82 80 85 79 78 78 74 69 68 59 41 20 26 35 37 30 48 49 50 54 55 65 60 48 53 59 60 64 71 70 61 47 23 36 30 52 53 44 32 27 38 55 13 353 358 12 9 5 2 1 351 334 318 298 280 245 224 210 320 329 294 275 287 282 275
36 42 33 24 25 28 34 28 51 58 59 59 59 62 63 69 74 63 83 93 84 85 92 86 77 74 74 73 69 71 51 25 33 41 42 40 49 57 55 62 58 70 77 66 60 61 60 63 66 65 58 39 33 41 37 52 57 44 39 26 20 13 359 351 346 346 356 354 358 353 345 339 334 328 315 307 300 255 317 292 273 316 294 271 274
38 39 36 26 35 35 36 34 39 50 53 47 49 52 56 67 80 85 83 84 87 87 83 90 89 76 72 74 70 69 59 36 38 47 47 44 50 54 57 61 57 50 77 77 65 65 57 51 56 60 63 53 44 40 40 51 60 49 42 44 22 359 335 349 353 351 348 351 348 353 345 344 339 333 323 318 314 301 237 255 281 279 264 270 270
31 39 40 40 39 37 40 39 37 44 48 47 44 48 48 67 73 93 88 89 91 85 76 74 80 78 70 64 62 67 69 54 46 54 53 50 52 63 54 55 46 42 60 89 79 60 55 51 45 44 50 47 51 53 44 44 65 62 61 59 14 331 0 350 345 349 330 323 315 328 321 322 325 328 326 329 329 337 307 250 235 207 221 245 251
17 30 40 45 44 40 35 39 39 37 44 48 48 47 47 60 65 65 73 76 89 93 97 98 89 81 73 71 73 60 68 71 53 60 58 56 52 60 62 60 43 45 59 66 78 73 53 48 40 37 41 39 35 37 51 48 38 5 6 14 5 2 4 356 335 347 323 316 316 324 322 326 328 327 323 320 317 314 307 267 214 197 194 210 232
17 24 38 46 43 44 39 26 25 27 23 26 37 41 41 51 58 59 71 83 87 86 84 86 89 94 97 86 78 71 58 67 77 62 61 58 58 55 63 59 50 72 66 65 61 65 65 45 34 12 15 15 21 22 12 12 7 21 348 347 15 17 5 336 319 319 317 318 325 324 325 333 330 330 332 337 338 327 318 306 287 269 252 229 223
25 30 35 45 48 48 44 37 35 35 39 33 40 34 14 24 53 72 89 96 98 106 110 114 115 112 105 92 94 90 76 65 67 64 51 50 48 54 56 50 36 54 68 67 43 25 39 48 14 356 353 2 1 1 354 18 56 22 19 44 28 19 346 322 312 321 321 319 330 323 321 334 341 340 342 344 335 333 326 315 299 284 305 8 35
27 33 30 32 43 46 44 44 41 43 48 49 48 48 44 47 48 43 41 110 141 140 143 136 132 125 116 108 100 90 74 65 44 49 50 44 40 39 45 48 45 54 62 59 35 15 6 357 342 337 346 350 360 6 15 26 51 41 48 65 96 150 293 310 309 294 297 302 310 318 341 348 3 358 348 340 338 339 336 345 348 28 87 63 47
24 32 34 35 39 41 46 39 31 31 34 41 42 37 38 34 37 28 44 35 40 58 60 85 101 111 104 104 102 87 66 59 57 39 36 36 39 44 47 50 50 59 58 39 32 17 348 341 337 342 340 347 1 21 60 74 24 9 13 8 12 10 332 303 307 322 326 323 355 18 18 3 350 339 336 335 333 346 348 346 359 22 46 76 63
36 30 29 32 39 45 47 45 40 30 29 37 41 34 42 42 50 46 49 44 42 54 52 56 64 87 105 97 78 72 54 46 41 34 26 25 31 33 40 43 49 62 64 46 18 7 0 348 348 350 351 355 10 27 35 23 27 37 37 39 31 29 27 23 9 5 356 26 54 32 351 351 359 338 339 346 358 348 350 346 347 343 355 36 49
36 29 31 26 37 49 58 51 48 40 25 20 32 36 40 32 44 44 47 47 52 50 49 54 63 72 85 85 77 65 50 40 37 35 25 26 35 30 31 29 26 31 32 13 6 3 353 356 337 338 349 7 42 74 61 40 39 33 32 29 27 20 17 23 17 12 350 12 347 311 329 326 319 14 8 357 347 344 352 338 338 299 279 335 88
35 18 8 2 12 43 78 76 75 57 45 42 26 18 30 42 58 47 35 30 59 62 68 67 66 71 78 73 78 64 57 44 23 14 18 25 25 33 37 36 25 21 14 4 352 346 347 350 20 36 41 45 43 45 43 42 39 31 28 27 29 30 30 24 25 23 4 329 341 358 354 358 23 0 2 1 339 327 339 345 330 319 281 208 122
22 15 8 20 17 28 102 110 94 85 77 61 49 38 16 14 40 57 33 12 13 94 93 78 85 82 80 83 91 84 64 53 26 325 352 29 40 17 23 19 7 10 5 352 340 350 19 35 34 35 44 50 48 41 32 33 28 30 33 29 30 33 31 31 26 15 356 358 3 9 0 6 359 355 10 353 330 321 334 346 333 327 309 248 246
18 6 357 359 1 5 76 131 131 106 96 89 81 59 44 52 43 48 35 16 32 31 45 93 118 118 93 50 35 91 101 122 179 280 21 34 27 28 15 14 17 3 350 6 59 42 39 48 39 45 42 48 45 42 38 42 38 31 27 26 30 31 28 25 24 6 359 1 351 357 352 355 341 340 348 325 307 315 323 346 325 325 331 315 285
354 345 354 355 348 337 334 47 135 137 121 118 112 106 92 38 42 48 52 49 40 37 44 44 46 63 104 103 43 79 109 138 157 50 29 15 13 10 6 9 18 18 7 18 27 42 35 42 31 43 49 54 52 44 44 42 36 38 26 27 32 29 25 23 5 358 357 354 348 355 3 8 346 330 323 307 306 316 337 331 335 333 329 339 29
36 357 340 348 350 351 21 28 33 98 141 140 138 135 119 108 66 36 44 45 49 50 42 38 39 38 58 110 129 119 118 92 64 38 11 4 343 337 44 79 86 79 311 119 58 24 39 52 50 48 49 51 44 46 45 45 39 39 32 34 27 21 28 18 343 355 353 353 350 349 352 348 345 336 323 308 327 343 345 341 345 343 329 355 85
19 13 6 359 351 359 42 42 45 46 64 68 57 94 125 130 120 99 27 32 54 56 41 31 22 23 21 26 45 86 93 60 33 12 3 351 348 350 30 73 89 52 36 49 48 47 48 57 59 53 53 55 46 49 47 48 46 38 39 43 31 13 22 8 358 14 4 355 348 349 341 337 335 326 328 337 5 347 336 342 336 344 354 17 19
321 22 24 11 10 352 15 53 46 43 28 46 68 136 202 161 144 143 110 58 31 22 22 16 13 3 5 4 356 22 48 81 15 5 21 3 354 347 42 74 75 58 83 68 52 50 53 54 52 52 55 57 53 49 49 44 39 37 30 30 23 18 15 8 18 9 5 360 1 348 346 341 342 353 345 348 351 3 2 0 17 23 15 22 37
345 17 23 28 17 11 356 31 57 47 39 22 9 17 8 167 168 127 135 147 135 121 109 14 348 356 320 332 314 268 76 29 20 11 15 25 13 46 79 56 48 31 41 39 42 35 48 59 56 51 54 55 49 54 46 38 32 31 28 22 15 16 14 17 16 8 9 5 9 8 360 359 353 0 8 17 15 19 12 11 10 24 25 14 23
27 31 32 19 13 359 353 351 50 47 48 359 351 14 20 59 86 157 169 158 137 132 123 155 189 310 343 314 312 316 328 1 17 20 26 54 57 67 67 64 52 44 49 36 30 33 48 63 68 59 59 60 56 49 43 42 34 34 36 37 23 22 20 17 13 12 10 15 12 8 8 8 3 3 13 30 32 27 16 12 9 14 28 39 38
75 49 32 7 346 347 1 37 78 45 39 325 11 37 24 34 30 35 69 141 145 113 107 92 37 350 338 321 304 288 290 309 21 37 56 64 62 65 70 67 71 54 57 43 37 32 45 40 60 59 56 52 55 62 50 41 46 58 47 42 38 34 25 19 14 14 12 10 6 6 10 10 11 12 17 25 14 16 14 14 12 9 10 14 32
102 64 62 31 351 350 11 35 357 46 13 354 14 55 44 41 43 43 41 37 88 118 116 120 110 53 35 1 353 29 35 54 60 51 48 49 53 64 69 70 66 61 49 44 43 42 44 41 47 58 48 51 23 359 21 17 38 76 69 47 40 34 27 21 12 11 3 1 360 357 4 8 8 12 18 28 20 12 3 1 5 10 25 24 25
93 324 319 19 9 311 300 40 344 22 35 40 47 45 42 46 48 44 49 53 67 83 97 101 104 71 18 350 13 35 56 48 61 71 66 67 65 71 76 71 66 55 46 42 36 43 45 44 43 48 39 11 1 355 2 359 34 58 62 54 41 32 20 10 9 355 3 356 352 355 2 359 359 5 17 25 19 16 18 17 16 19 23 22 20
351 294 293 314 325 327 3 32 81 84 81 69 46 54 56 54 63 66 66 72 82 111 130 124 103 77 63 62 45 55 71 63 69 76 76 71 74 69 75 73 66 60 44 32 34 44 55 46 40 35 15 7 355 355 356 356 41 73 72 82 83 60 3 353 345 357 344 335 356 0 10 2 356 1 18 27 14 13 25 16 8 12 18 23 14
353 340 302 285 296 335 44 85 73 82 87 90 97 84 79 80 82 84 75 75 80 81 97 106 106 110 99 96 88 83 94 86 77 73 75 82 77 75 69 72 71 59 47 40 34 46 68 54 28 5 3 347 352 7 4 6 0 81 109 135 144 160 190 292 324 335 333 6 4 10 8 9 11 25 19 355 2 15 10 13 8 6 6 11 15
350 339 343 323 301 328 72 82 92 85 80 75 67 75 69 68 83 89 85 75 73 72 54 62 67 53 33 57 76 80 79 75 75 73 63 68 75 73 71 69 74 73 60 50 47 34 84 83 40 347 341 355 358 351 356 19 23 23 105 148 177 209 205 213 239 271 301 340 347 355 0 9 11 18 10 7 12 10 12 10 0 358 358 7 7
329 321 324 331 319 328 115 138 103 88 83 79 57 41 54 58 74 105 100 82 66 65 67 70 50 48 54 68 72 69 71 68 71 72 72 74 76 74 67 68 66 56 34 38 44 27 26 148 178 319 336 353 351 351 343 329 337 93 97 108 137 147 251 308 16 11 338 323 322 322 340 348 359 353 355 3 8 16 8 2 2 5 358 355 354
341 326 327 337 3 72 143 123 113 119 135 132 109 72 53 40 54 92 82 68 66 71 75 66 56 58 56 62 77 80 79 79 75 74 74 69 73 81 75 65 55 51 34 37 22 32 31 35 54 27 1 338 335 341 327 345 29 95 102 95 70 52 26 358 352 345 5 18 343 353 352 350 358 2 1 341 12 18 354 358 354 347 340 339 329
20 346 329 332 13 357 169 127 126 135 142 118 104 74 46 63 68 74 85 84 78 90 96 94 85 69 60 65 81 101 107 107 98 88 81 85 83 86 94 85 67 49 22 6 25 39 47 45 44 25 357 335 355 6 32 49 47 42 44 74 87 60 13 342 321 301 315 26 18 8 11 359 337 340 347 336 320 326 322 322 317 320 329 330 339
151 224 268 287 348 305 198 142 144 147 140 122 114 90 68 61 76 81 97 88 89 113 122 110 105 105 94 78 88 112 117 110 107 107 100 91 87 79 81 85 81 50 9 352 14 39 41 52 30 342 333 7 33 39 40 43 46 44 44 48 56 59 334 304 302 347 13 7 355 344 333 356 356 338 346 347 337 317 312 318 314 312 316 331 326
196 228 238 294 336 289 210 174 153 148 132 131 122 107 93 84 100 112 115 112 112 113 101 93 93 95 94 85 58 97 133 126 126 113 112 106 99 98 100 103 93 139 258 321 187 179 203 300 283 338 45 80 73 51 41 38 35 38 44 42 42 15 357 342 334 340 328 316 326 339 329 295 354 339 348 346 353 342 357 9 2 354 346 345 330
281 247 358 342 319 330 18 174 157 150 144 148 139 132 141 117 122 143 128 110 97 113 116 113 112 104 87 62 46 65 107 131 118 117 115 122 134 142 151 165 184 203 218 229 235 199 204 232 331 61 80 68 70 64 51 35 32 28 31 22 17 2 345 332 312 310 316 324 337 314 273 242 340 2 7 19 11 341 22 358 350 349 343 335 334
244 158 132 225 280 288 328 153 165 157 159 159 150 160 182 165 161 154 149 164 167 142 128 122 120 104 83 58 47 52 331 108 138 133 145 145 152 151 166 179 199 218 203 212 225 218 216 223 90 96 99 89 83 74 56 42 33 26 20 9 353 353 353 346 325 327 332 339 332 340 357 217 107 66 33 26 12 346 335 334 347 337 332 333 333
206 155 165 209 270 272 264 188 176 161 164 161 163 174 191 191 175 150 180 180 174 145 136 136 145 145 146 170 194 167 242 87 140 158 163 164 169 170 175 185 195 174 157 171 199 189 180 115 99 100 104 109 98 84 78 71 54 38 22 1 357 358 355 350 343 351 354 345 328 314 336 59 41 0 351 25 18 6 0 344 335 327 337 334 329
204 176 197 213 229 259 281 126 168 171 163 172 171 185 200 192 203 164 155 140 147 147 146 142 155 154 151 170 173 148 176 80 112 152 160 171 173 169 162 161 147 169 188 145 102 95 97 97 93 92 94 88 79 89 103 105 91 64 34 18 8 2 358 5 354 345 346 347 327 342 47 54 38 5 328 329 341 349 341 347 338 328 321 320 317